Regional Weather Roundup
Issued by NWS

Home | Current Version | Previous Version | Graphics & Text | Print | Product List | Glossary On
Versions: 1 2 3 4 5 6 7 8 9 10 11 12 13 14 15 16 17 18 19 20 21 22 23 24 25 26 27 28 29 30 31 32 33 34 35 36 37 38 39 40 41 42 43 44 45 46 47 48 49 50
000
ASUS43 KOAX 271110
RWRNE

WEATHER ROUNDUP FOR NEBRASKA
NATIONAL WEATHER SERVICE OMAHA NE
600 AM CDT THU JUL 27 2017

NOTES: SATELLITE DATA IS BEING USED TO AUGMENT CLOUD COVER ABOVE
       12000 FEET.
       "FAIR" INDICATES FEW OR NO CLOUDS BELOW 12,000 FEET WITH NO
       SIGNIFICANT WEATHER AND/OR OBSTRUCTIONS TO VISIBILITY.


NEZ001>004-019>022-054>056-271200-
NEBRASKA PANHANDLE

CITY           SKY/WX    TMP DP  RH WIND       PRES   REMARKS
SCOTTSBLUFF    LGT RAIN  68  65  90 E9        30.19S
ALLIANCE       MOCLDY    67  64  90 SE9       30.20R
CHADRON        CLOUDY    72  63  73 S10       30.15S
GORDON         CLOUDY    67  60  77 S6        30.19R
KIMBALL        CLEAR     61  61 100 SE3       30.23S FOG
SIDNEY         CLOUDY    65  62  90 E5        30.23R
$$

NEZ057>060-069>072-079>082-271200-
SOUTHWEST NEBRASKA

CITY           SKY/WX    TMP DP  RH WIND       PRES   REMARKS
NORTH PLATTE   CLOUDY    68  61  78 E5        30.16S
IMPERIAL       CLOUDY    68  64  87 NE6       30.16S
LEXINGTON      CLOUDY    68  63  83 NE8       30.14R
MCCOOK         CLOUDY    71  69  93 NE9       30.13R
OGALLALA       CLOUDY    69  67  92 E7        30.17F
$$

NEZ005>010-023>029-035>040-094-271200-
NORTH CENTRAL NEBRASKA

CITY           SKY/WX    TMP DP  RH WIND       PRES   REMARKS
VALENTINE      CLOUDY    61  56  83 CALM      30.17R
AINSWORTH      CLEAR     59  58  99 CALM      30.17S
BROKEN BOW     CLEAR     61  59  93 N5        30.15R
O`NEILL        CLEAR     60  60 100 N5        30.15R
ORD            CLEAR     60  57  89 NW5       30.13R
THEDFORD       CLEAR     61  60  96 CALM      30.19S
$$

NEZ041-046>049-061>064-073>077-083>087-271200-
SOUTH CENTRAL NEBRASKA

CITY           SKY/WX    TMP DP  RH WIND       PRES   REMARKS
GRAND ISLAND   CLEAR     64  64 100 N6        30.11R
AURORA         CLEAR     65  65  99 N7        30.10R
HASTINGS       PTCLDY    68  64  87 NE8       30.10R
HEBRON         CLOUDY    73  72  94 NE3       30.05R FOG
HOLDREGE       CLOUDY    68  65  90 NE10      30.11S
KEARNEY        MOCLDY    66  63  90 NE10      30.12R
YORK           PTCLDY    66  64  94 N8        30.08R
$$

NEZ011>018-030>034-042>045-271200-
NORTHEAST NEBRASKA

CITY           SKY/WX    TMP DP  RH WIND       PRES   REMARKS
NORFOLK        CLEAR     61  59  93 NW5       30.10R
ALBION         CLEAR     62  61  96 N3        30.12R
BLAIR          RAIN      67  65  94 N7        30.05S
COLUMBUS       CLEAR     64  62  93 N6        30.09R
FREMONT        CLEAR     66  64  93 N3        30.07R
TEKAMAH        CLEAR     64  62  93 N7        30.06R
WAYNE          CLEAR     60  60  99 CALM      30.10R
$$

NEZ050>053-065>068-078-088>093-271200-
SOUTHEAST NEBRASKA

CITY           SKY/WX    TMP DP  RH WIND       PRES   REMARKS
LINCOLN        CLEAR     69  66  90 NE9       30.04R
OMAHA EPPLEY   CLEAR     67  64  90 NW7       30.04R
BEATRICE       MOCLDY    71  71  98 NE5       30.03S FOG
FALLS CITY     CLEAR     71  70  96 N6        29.99R
NEBRASKA CITY  PTCLDY    70  70 100 N6        30.02R
PLATTSMOUTH    CLEAR     69  68  96 N3        30.04R
$$

NEZ044-045-051>053-067-271200-
OMAHA AREA

CITY           SKY/WX    TMP DP  RH WIND       PRES   REMARKS
OMAHA EPPLEY   CLEAR     67  64  90 NW7       30.04R
BLAIR          RAIN      67  65  94 N7        30.05S
FREMONT        CLEAR     66  64  93 N3        30.07R
MILLARD        CLEAR     71  67  89 N5        30.04S
OFFUTT AFB     CLEAR     70  65  84 N8        30.03R
PLATTSMOUTH    CLEAR     69  68  96 N3        30.04R
WAHOO          FAIR      66  65  96 N6        30.06R
$$



USA.gov is the U.S. government's official web portal to all federal, state and local government web resources and services.